Location: Peterborough
(44.3091°N, 78.3197°W)
Time: 06:43:20
(UTC-05:00)

A-11 Canister half - Pass Details

Date: 14 December 2023
Orbit: 1512 x 1687 km, 47.2° (Epoch: 25 February)

Event Time Altitude Azimuth Distance (km) Brightness Sun altitude
Exits shadow 05:46:47 22° 255° (WSW) 3,085 10.1 -19.6°
Maximum altitude 05:49:45 25° 231° (SW) 2,917 10.1 -19.1°
Drops below altitude 10° 05:57:20 10° 182° (S) 3,938 11.3 -17.8°
Sets 06:01:17 0° 169° (S) 4,927 12.0 -17.1°
